National Weather Service Hourly Weather Roundup
NOAA NWS Hourly Roundups by Site
NOAA NWS Hourly Roundups by Site
Regional Weather Roundup for Sacramento, CA

To Select Another Site Choose from List

Select Site:  

000
ASUS46 KSTO 170015
RWRCA

NORTHERN AND CENTRAL CA REGIONAL WEATHER ROUNDUP
NATIONAL WEATHER SERVICE SACRAMENTO CA
500 PM PDT MON MAY 16 2022

NOTE: FAIR INDICATES FEW OR NO CLOUDS BELOW 12,000 FEET WITH NO
SIGNIFICANT WEATHER AND/OR OBSTRUCTIONS TO VISIBILITY.

CAZ001-003-170100-
NORTHWEST AREA

CITY           SKY/WX    TMP DP  RH WIND       PRES   REMARKS
CRESCENT CITY  SUNNY     57  46  66 NW16G25   30.20F
UKIAH          SUNNY     74  40  29 NW14G23   30.01F
$$

CAZ006-505>513-170100-
BAY AREA

CITY           SKY/WX    TMP DP  RH WIND       PRES   REMARKS
SANTA ROSA     MOSUNNY   74  53  48 SE14      29.97F
SAN RAFAEL     N/A       70  MM  MM MISG
NAPA           MOSUNNY   70  50  49 SW16      29.99F
CONCORD        SUNNY     72  49  44 S15       29.99F
OAKLAND CITY   N/A       62  MM  MM MISG
OAKLAND        PTSUNNY   61  50  67 W16       30.07F
SAN FRAN CITY  N/A       57  MM  74 MISG
SAN FRAN ARPT  PTSUNNY   60  49  66 W24G33    30.06F
LIVERMORE      SUNNY     63  49  60 W17       30.03S
HAYWARD        PTSUNNY   59  50  72 W15G24    30.06F
REDWOOD CITY   N/A       63  MM  62 MISG
MOFFETT ARPT   SUNNY     64  48  55 N17G24    30.05F
SAN JOSE ARPT  PTSUNNY   67  50  54 N18G30    30.04F
$$
CAZ034-037-514>518-170100-
CENTRAL COAST

CITY           SKY/WX    TMP DP  RH WIND       PRES   REMARKS
WATSONVILLE    MOSUNNY   68  51  54 SE8       30.03F
SALINAS        MOSUNNY   64  49  57 W17       30.07F
MONTEREY       PTSUNNY   60  48  64 W14G20    30.10S
SAN LUIS OBISP SUNNY     62  49  62 NW22      29.97F
SANTA MARIA    SUNNY     60  50  69 NW24      29.99F
HALF MOON BAY  CLOUDY    55  54  94 NW14      30.09F
$$
CAZ015-016-170100-
NORTHERN SACRAMENTO VALLEY

CITY           SKY/WX    TMP DP  RH WIND       PRES   REMARKS
REDDING        SUNNY     85  40  20 S14       29.89F
RED BLUFF      SUNNY     84  40  21 VRB5      29.91F
OROVILLE       SUNNY     83  42  23 VRB5      29.93F
$$
CAZ016>018-170100-
SOUTHERN SACRAMENTO VALLEY

CITY           SKY/WX    TMP DP  RH WIND       PRES   REMARKS
AUBURN         SUNNY     75  48  38 SW7       29.99F
BEALE AFB      SUNNY     84  48  28 SW5       29.90F
LINCOLN        FAIR      81  45  28 MISG      29.92F
MARYSVILLE     SUNNY     85  41  21 S6        29.91
SAC INTL ARPT  PTSUNNY   82  49  31 S10       29.92F
MATHER AIRPORT SUNNY     81  46  30 W3        29.92F
DOWNTOWN SAC   N/A       81  MM  MM MISG
SAC EXEC ARPT  SUNNY     66  52  60 SW12      29.93F
VACAVILLE      MOSUNNY   83  52  34 S14G24    29.93F
TRAVIS AFB     SUNNY     75  48  38 SW25G31   29.94F
$$
CAZ019>021-170100-
SAN JOAQUIN VALLEY

CITY           SKY/WX    TMP DP  RH WIND       PRES   REMARKS
STOCKTON       SUNNY     79  45  29 W16       29.95F
MODESTO        SUNNY     79  44  28 NW16      29.93F
MERCED         SUNNY     85  43  22 NW13      29.92F
LEMOORE        PTSUNNY   87  38  17 N14G21    29.90F
FRESNO         PTSUNNY   86  38  18 N17       29.91F
HANFORD        SUNNY     86  35  16 N9        29.91F
PORTERVILLE    SUNNY     87  43  21 MISG      29.91F
BAKERSFIELD    SUNNY     85  44  23 NW13      29.89F
$$
CAZ011-012-071-170100-
NORTHERN MOUNTAINS

CITY           SKY/WX    TMP DP  RH WIND       PRES   REMARKS
YREKA          SUNNY     75  36  24 N17G25    30.02S
MOUNT SHASTA   MOSUNNY   72  32  23 NW7       30.00F
ALTURAS        MOSUNNY   72  19  13 W14G23    30.01F
$$
CAZ011-012-071-170100-
SIERRA NEVADA MTNS

CITY           SKY/WX    TMP DP  RH WIND       PRES   REMARKS
BLUE CANYON    MOSUNNY   63  21  20 S10       30.13F
TAHOE VLY ARPT PTSUNNY   66  17  15 S12G17    30.10F
MAMMOTH LAKES  FAIR      70  23  17 NW18G26   30.12S
$$


 

View Past Reports for Sacramento, CA.

Products Courtesy of NOAA-NWS
NWS Information Parsing Script by Ken True at Saratoga Weather - Script by SE Lincoln Weather.

powered by Cumulus v1.9.3 (1059)
Ambient Weather VWS v14.00
Top Website Map Copyright © 2007 - 2022 Foresthillweather.com Never base important decisions on this or any weather information obtained from the Internet